Stations météo

réclame
Mon MeteoGroup
St. Athan, Grande-Bretagne (3716): Température de l'air & dewpoint: 14.07.2018 21:00:00 - 20.07.2018 21:00:00 (BST)St. Athan, Grande-Bretagne (3716): Température de l'air -20cm & Température de l'air -100cm: 14.07.2018 21:00:00 - 20.07.2018 21:00:00 (BST)St. Athan, Grande-Bretagne (3716): Vitesse du vent & gusts: 14.07.2018 21:00:00 - 20.07.2018 21:00:00 (BST)St. Athan, Grande-Bretagne (3716): Direction du vent: 14.07.2018 21:00:00 - 20.07.2018 21:00:00 (BST)St. Athan, Grande-Bretagne (3716): reduced air pressure: 14.07.2018 21:00:00 - 20.07.2018 21:00:00 (BST)St. Athan, Grande-Bretagne (3716): visibility: 14.07.2018 21:00:00 - 20.07.2018 21:00:00 (BST)St. Athan, Grande-Bretagne (3716): Ensoleillement: 14.07.2018 21:00:00 - 20.07.2018 21:00:00 (BST)St. Athan, Grande-Bretagne (3716): Quantités de précipitations: 14.07.2018 21:00:00 - 20.07.2018 21:00:00 (BST)
Date & Time tt [°C] td [°C] tt -20cm [°C] tt -100cm [°C] ff [km/h] ff [knt] fx [km/h] fx [knt] dd ppp [hPa] vv [km] sd [min] rr [mm]
20.07.2018 21:00:00 17,1 11,8 - - 11 6 - - W 1013,5 45 0 0,0
20.07.2018 20:00:00 17,5 12,6 - - 15 8 - - WNW 1013,6 45 0 0,0
20.07.2018 19:00:00 17,0 12,4 - - 11 6 - - WNW 1013,7 40 0 0,0
20.07.2018 18:00:00 18,4 12,6 - - 21 11 - - W 1013,8 30 0 0,0
20.07.2018 17:00:00 19,2 12,9 - - 24 13 - - W 1014,0 30 6 0,0
20.07.2018 16:00:00 20,6 11,8 - - 26 14 - - W 1014,1 10 48 0,0
20.07.2018 15:00:00 20,5 11,3 - - 26 14 - - W 1014,3 10 60 0,0
20.07.2018 14:00:00 21,4 12,3 - - 28 15 - - WSW 1014,5 10 48 0,0
20.07.2018 13:00:00 19,5 12,1 - - 21 11 - - W 1014,8 10 42 0,0
20.07.2018 12:00:00 20,7 11,4 - - 24 13 - - W 1015,0 10 60 0,0
20.07.2018 11:00:00 21,0 11,4 - - 18 10 - - W 1015,1 10 60 0,0
20.07.2018 10:00:00 20,8 11,4 19,5 17,7 16 9 - - W 1015,5 10 60 0,0
20.07.2018 09:00:00 18,3 13,0 - - 11 6 - - WNW 1015,7 10 60 0,0
20.07.2018 08:00:00 17,0 13,9 - - 8 4 - - W 1015,8 30 60 0,0
20.07.2018 07:00:00 14,4 12,4 - - 4 2 - - NW 1016,0 10 18 0,0
20.07.2018 06:00:00 13,3 12,2 - - 5 3 - - NNW 1015,9 13 0 0,0
20.07.2018 05:00:00 13,7 12,4 - - 4 2 - - NW 1016,3 19 0 0,0
20.07.2018 04:00:00 14,2 12,2 - - 2 1 - - N 1016,4 30 0 0,0
20.07.2018 03:00:00 15,0 13,1 - - 4 2 - - NNE 1016,7 24 0 0,0
20.07.2018 02:00:00 15,1 12,8 - - 8 4 - - NW 1017,2 26 0 0,0
20.07.2018 01:00:00 16,4 13,6 - - 8 4 - - WNW 1017,2 40 - 0,0
20.07.2018 00:00:00 16,5 13,0 - - 11 6 - - W 1017,4 40 0 0,0
19.07.2018 23:00:00 16,9 12,6 - - 13 7 - - WNW 1017,5 45 0 0,0
19.07.2018 22:00:00 17,3 12,5 - - 13 7 - - W 1017,7 45 0 0,0
19.07.2018 21:00:00 18,1 12,7 - - 16 9 - - W 1017,5 10 42 0,0
19.07.2018 20:00:00 19,5 11,9 - - 18 10 - - WNW 1017,5 30 60 0,0
19.07.2018 19:00:00 20,2 11,3 - - 21 11 - - W 1017,6 35 60 0,0
19.07.2018 18:00:00 20,9 10,6 - - 22 12 - - W 1017,7 40 60 0,0
19.07.2018 17:00:00 21,3 10,0 - - 18 10 - - W 1017,9 30 60 0,0
19.07.2018 16:00:00 22,3 11,9 - - 18 10 - - W 1018,2 10 60 0,0
19.07.2018 15:00:00 22,4 11,5 - - 16 9 - - W 1018,4 10 60 0,0
19.07.2018 14:00:00 21,9 11,1 - - 16 9 - - WSW 1018,7 10 60 0,0
19.07.2018 13:00:00 21,2 9,6 - - 15 8 - - WSW 1019,2 10 60 0,0
19.07.2018 12:00:00 19,9 10,4 - - 15 8 - - WSW 1019,3 10 60 0,0
19.07.2018 11:00:00 19,6 10,7 - - 16 9 - - WSW 1019,4 10 60 0,0
19.07.2018 10:00:00 19,5 10,9 19,4 17,7 11 6 - - WSW 1019,4 10 60 0,0
19.07.2018 09:00:00 19,0 10,6 - - 4 2 - - NNW 1019,5 10 60 0,0
19.07.2018 08:00:00 15,5 11,5 - - 4 2 - - N 1019,6 24 6 0,0
19.07.2018 07:00:00 13,4 10,2 - - 2 1 - - N 1019,8 40 0 0,0
19.07.2018 06:00:00 12,7 9,6 - - 4 2 - - NNE 1019,6 40 0 0,0
19.07.2018 05:00:00 12,8 9,5 - - 5 3 - - N 1019,6 45 0 0,0
19.07.2018 04:00:00 13,7 9,8 - - 2 1 - - N 1019,4 35 0 0,0
19.07.2018 03:00:00 14,0 10,2 - - 4 2 - - NNE 1019,5 30 0 0,0
19.07.2018 02:00:00 14,1 9,6 - - 2 1 - - N 1019,6 50 0 0,0
19.07.2018 01:00:00 14,8 9,9 - - 8 4 - - NW 1019,5 30 - 0,0
19.07.2018 00:00:00 15,1 10,1 - - 9 5 - - NW 1019,5 27 0 0,0
18.07.2018 23:00:00 16,2 10,4 - - 11 6 - - WNW 1019,5 45 0 0,0
18.07.2018 22:00:00 16,6 10,4 - - 11 6 - - WNW 1019,4 40 0 0,0
18.07.2018 21:00:00 18,0 10,0 - - 13 7 - - W 1019,2 50 0 0,0
18.07.2018 20:00:00 18,9 10,7 - - 15 8 - - W 1019,1 40 18 0,0
18.07.2018 19:00:00 19,8 10,0 - - 15 8 - - W 1018,8 45 60 0,0
18.07.2018 18:00:00 20,0 10,4 - - 18 10 - - WSW 1018,6 25 42 0,0
18.07.2018 17:00:00 21,6 10,9 - - 15 8 - - W 1018,5 10 48 0,0
18.07.2018 16:00:00 21,5 11,8 - - 16 9 - - WSW 1018,5 10 24 0,0
18.07.2018 15:00:00 20,5 12,0 - - 13 7 - - W 1018,4 10 0 0,0
18.07.2018 14:00:00 19,6 11,6 - - 13 7 - - W 1018,4 10 0 0,0
18.07.2018 13:00:00 19,4 12,0 - - 11 6 - - WSW 1018,3 10 0 0,0
18.07.2018 12:00:00 19,7 11,9 - - 11 6 - - W 1018,3 10 0 0,0
18.07.2018 11:00:00 19,1 13,1 - - 13 7 - - W 1018,2 10 6 0,0
18.07.2018 10:00:00 19,3 13,6 19,7 17,7 11 6 - - SW 1018,0 10 18 0,0
18.07.2018 09:00:00 18,4 13,6 - - 13 7 - - SW 1018,1 10 0 0,0
18.07.2018 08:00:00 18,3 12,9 - - 11 6 - - SW 1017,7 35 36 0,0
18.07.2018 07:00:00 17,1 12,5 - - 8 4 - - SSW 1017,3 45 0 0,0
18.07.2018 06:00:00 17,3 12,2 - - 8 4 - - SSW 1017,1 45 0 0,0
18.07.2018 05:00:00 16,8 12,8 - - 5 3 - - S 1017,0 40 0 0,0
18.07.2018 04:00:00 15,2 12,8 - - 2 1 - - ESE 1017,0 30 0 0,0
18.07.2018 03:00:00 15,4 12,9 - - 4 2 - - NNW 1017,2 35 0 0,0
18.07.2018 02:00:00 16,6 12,4 - - 9 5 - - WSW 1017,3 50 0 0,0
18.07.2018 01:00:00 16,2 12,4 - - 9 5 - - SW 1017,4 45 - 0,0
18.07.2018 00:00:00 16,5 12,4 - - 4 2 - - WNW 1017,6 45 0 0,0
17.07.2018 23:00:00 16,3 12,0 - - 5 3 - - WNW 1017,5 45 0 0,0
17.07.2018 22:00:00 16,7 11,9 - - 11 6 - - W 1017,3 45 0 0,0
17.07.2018 21:00:00 17,4 12,7 - - 13 7 - - WNW 1017,0 40 0 0,0
17.07.2018 20:00:00 18,0 11,8 - - 13 7 - - WNW 1016,8 50 0 0,0
17.07.2018 19:00:00 18,3 11,4 - - 18 10 - - W 1016,6 40 30 0,0
17.07.2018 18:00:00 18,8 10,8 - - 18 10 - - W 1016,6 50 18 0,0
17.07.2018 17:00:00 19,0 11,0 - - 21 11 - - WNW 1016,6 10 0 0,0
17.07.2018 16:00:00 19,0 10,6 - - 24 13 - - W 1016,7 10 6 0,0
17.07.2018 15:00:00 19,8 10,4 - - 21 11 - - W 1016,6 10 36 0,0
17.07.2018 14:00:00 19,4 10,8 - - 15 8 - - WSW 1016,7 10 48 0,0
17.07.2018 13:00:00 20,3 10,0 - - 22 12 - - WSW 1016,8 10 24 0,0
17.07.2018 12:00:00 18,6 12,4 - - 24 13 - - W 1016,5 10 0 0,0
17.07.2018 11:00:00 19,1 12,7 - - 16 9 - - W 1016,2 10 12 0,0
17.07.2018 10:00:00 18,0 13,5 19,7 17,7 18 10 - - W 1016,0 10 0 0,0
17.07.2018 09:00:00 18,0 12,3 - - 16 9 - - WSW 1015,8 10 54 0,0
17.07.2018 08:00:00 17,6 12,4 - - 21 11 - - WSW 1015,7 10 42 0,0
17.07.2018 07:00:00 16,4 12,2 - - 18 10 - - WSW 1015,5 35 24 0,0
17.07.2018 06:00:00 15,7 11,9 - - 11 6 - - W 1015,1 40 0 0,0
17.07.2018 05:00:00 15,2 12,0 - - 9 5 - - WNW 1015,1 40 0 0,0
17.07.2018 04:00:00 14,8 11,9 - - 9 5 - - NW 1015,1 30 0 0,0
17.07.2018 03:00:00 15,1 12,1 - - 9 5 - - WNW 1015,3 40 0 0,0
17.07.2018 02:00:00 14,3 11,7 - - 8 4 - - WNW 1015,5 40 0 0,0
17.07.2018 01:00:00 15,5 12,6 - - 9 5 - - W 1015,6 45 - 0,0
17.07.2018 00:00:00 15,8 12,2 - - 11 6 - - WNW 1015,7 50 0 0,0
16.07.2018 23:00:00 16,2 12,0 - - 16 9 - - W 1015,5 45 0 0,0
16.07.2018 22:00:00 16,1 11,8 - - 16 9 - - W 1015,3 45 0 0,0
16.07.2018 21:00:00 16,4 11,7 - - 21 11 - - W 1014,9 35 30 0,0
16.07.2018 20:00:00 17,0 11,6 - - 26 14 - - W 1014,5 35 60 0,0
16.07.2018 19:00:00 17,6 12,3 - - 26 14 - - W 1014,3 30 60 0,0
16.07.2018 18:00:00 18,7 12,0 - - 28 15 - - W 1013,9 35 60 0,0
16.07.2018 17:00:00 19,2 13,2 - - 34 18 46 25 W 1013,9 18 48 0,0
16.07.2018 16:00:00 18,4 15,5 - - 24 13 - - W 1013,9 10 0 0,0
16.07.2018 15:00:00 17,8 15,8 - - 16 9 - - WNW 1013,9 10 0 0,6
16.07.2018 14:00:00 18,7 15,7 - - 18 10 - - W 1014,1 10 6 0,0
16.07.2018 13:00:00 22,2 14,8 - - 13 7 - - WSW 1013,7 10 48 0,0
16.07.2018 12:00:00 22,1 13,6 - - 9 5 - - SE 1013,8 10 54 0,0
16.07.2018 11:00:00 21,0 12,8 - - 5 3 - - S 1013,9 10 18 0,0
16.07.2018 10:00:00 20,2 14,7 20,2 17,5 5 3 - - S 1013,8 10 6 0,0
16.07.2018 09:00:00 19,8 15,4 - - 5 3 - - S 1013,9 10 0 0,0
16.07.2018 08:00:00 18,4 16,1 - - 2 1 - - E 1014,1 18 0 0,0
16.07.2018 07:00:00 17,0 14,9 - - 4 2 - - ENE 1014,0 18 0 0,0
16.07.2018 06:00:00 16,8 14,7 - - 2 1 - - E 1014,1 22 0 0,0
16.07.2018 05:00:00 17,3 15,2 - - 2 1 - - NE 1014,2 19 0 0,0
16.07.2018 04:00:00 17,5 15,2 - - 2 1 - - NW 1014,5 20 0 0,0
16.07.2018 03:00:00 17,4 14,6 - - 5 3 - - NW 1014,9 26 0 0,0
16.07.2018 02:00:00 17,8 14,5 - - 8 4 - - WNW 1015,2 35 0 0,0
16.07.2018 01:00:00 17,8 14,0 - - 8 4 - - WNW 1015,4 30 - 0,0
16.07.2018 00:00:00 17,7 14,4 - - 5 3 - - W 1015,5 40 0 0,0
15.07.2018 23:00:00 17,4 14,9 - - 8 4 - - W 1015,6 24 0 0,0
15.07.2018 22:00:00 17,5 15,0 - - 5 3 - - W 1015,5 25 0 0,0
15.07.2018 21:00:00 18,6 13,8 - - 5 3 - - W 1015,2 40 36 0,0
15.07.2018 20:00:00 20,6 11,7 - - 18 10 - - WNW 1015,1 35 60 0,0
15.07.2018 19:00:00 21,5 11,0 - - 21 11 - - W 1015,0 45 60 0,0
15.07.2018 18:00:00 22,8 10,2 - - 21 11 - - WNW 1015,2 40 60 0,0
15.07.2018 17:00:00 22,6 10,4 - - 18 10 - - W 1015,6 30 60 0,0
15.07.2018 16:00:00 23,0 12,0 - - 18 10 - - W 1015,9 10 60 0,0
15.07.2018 15:00:00 24,1 13,5 - - 18 10 - - WSW 1015,9 10 60 0,0
15.07.2018 14:00:00 23,2 14,1 - - 13 7 - - WSW 1016,1 10 60 0,0
15.07.2018 13:00:00 21,9 13,0 - - 11 6 - - WSW 1016,7 10 60 0,0
15.07.2018 12:00:00 21,7 14,2 - - 8 4 - - SSW 1017,1 10 60 0,0
15.07.2018 11:00:00 20,9 14,3 - - 8 4 - - S 1017,2 10 60 0,0
15.07.2018 10:00:00 19,8 15,0 19,9 17,5 8 4 - - S 1017,2 10 54 0,0
15.07.2018 09:00:00 19,1 15,9 - - 8 4 - - SW 1017,6 10 42 0,0
15.07.2018 08:00:00 18,2 15,7 - - 4 2 - - ENE 1017,7 10 60 0,0
15.07.2018 07:00:00 15,4 13,8 - - 4 2 - - E 1017,7 11 48 0,0
15.07.2018 06:00:00 13,7 12,6 - - 4 2 - - NNE 1017,5 13 0 0,0
15.07.2018 05:00:00 13,4 12,1 - - 4 2 - - NNE 1017,7 9 0 0,0
15.07.2018 04:00:00 13,8 12,9 - - 5 3 - - N 1018,0 12 0 0,0
15.07.2018 03:00:00 13,8 12,3 - - 8 4 - - NNW 1018,1 13 0 0,0
15.07.2018 02:00:00 15,5 13,8 - - 8 4 - - NW 1018,3 28 0 0,0
15.07.2018 01:00:00 15,9 14,3 - - 9 5 - - WNW 1018,5 26 - 0,0
15.07.2018 00:00:00 16,3 14,4 - - 5 3 - - W 1018,8 35 0 0,0
14.07.2018 23:00:00 16,7 14,2 - - 5 3 - - WNW 1018,8 40 0 0,0
14.07.2018 22:00:00 17,3 14,4 - - 15 8 - - WNW 1018,8 50 6 0,0
14.07.2018 21:00:00 18,4 13,8 - - 21 11 - - WNW 1018,7 45 60 0,0

tt = Température de l'air
td = dewpoint
tt -20cm = Température de l'air -20cm
tt -100cm = Température de l'air -100cm
ff = Vitesse du vent
fx = gusts
dd = Direction du vent
ppp = reduced air pressure
vv = visibility
sd = Ensoleillement
rr = Quantités de précipitations

stations d'obs. à proximité